Regional Weather Roundup
Issued by NWS

Home | Current Version | Previous Version | Graphics & Text | Print | Product List | Glossary On
Versions: 1 2 3 4 5 6 7 8 9 10 11 12 13 14 15 16 17 18 19 20 21 22 23 24 25 26 27 28 29 30 31 32 33 34 35 36 37 38 39 40 41 42 43 44 45 46 47 48 49 50
000
ASUS44 KMEG 240700
RWRTN
TENNESSEE HOURLY STATE WEATHER ROUNDUP
NATIONAL WEATHER SERVICE MEMPHIS TN
200 AM CDT SUN MAY 24 2015

TNZ002-004-019-021-049-052-054-088>092-240800-
WEST TENNESSEE

CITY           SKY/WX    TMP DP  RH WIND       PRES   REMARKS
MEMPHIS INTL   PTCLDY    73  57  57 SE8       30.11F
NWS MEMPHIS      N/A     67 N/A N/A MISG        N/A
JACKSON        PTCLDY    67  58  72 SE3       30.15S
DYERSBURG      MOCLDY    68  48  49 SE7       30.14S
PARIS          CLEAR     63  55  77 SE7       30.17R
LEXINGTON      CLEAR     64  57  77 SE3       30.16S
$$

TNZ008-025-027-028-033-062-065-066-240800-
NORTH MIDDLE TENNESSEE

CITY           SKY/WX    TMP DP  RH WIND       PRES   REMARKS
NASHVILLE      PTCLDY    65  55  70 SE6       30.22S
CLARKSVILLE    CLEAR     60  56  86 SE5       30.19S
CROSSVILLE     PTCLDY    59  49  69 CALM      30.29F
$$

TNZ061-075-076-078-094-096-097-240800-
SOUTH MIDDLE TENNESSEE

CITY           SKY/WX    TMP DP  RH WIND       PRES   REMARKS
WINCHESTER     CLEAR     68  48  49 S8        30.24F
SHELBYVILLE    CLEAR     64  54  68 SE3       30.24F
$$

TNZ017-018-042-046-047-240800-
NORTHEAST TENNESSEE

CITY           SKY/WX    TMP DP  RH WIND       PRES   REMARKS
TRI CITIES     CLEAR     54  48  80 CALM      30.33S
$$

TNZ012-013-036-069-073-074-240800-
CENTRAL EAST TENNESSEE

CITY           SKY/WX    TMP DP  RH WIND       PRES   REMARKS
KNOXVILLE      PTCLDY    59  55  87 NE3       30.28F
OAK RIDGE      PTCLDY    59  55  87 CALM      30.30F
GATLINBURG     SUNNY     55  54  94 CALM      30.29F
$$

TNZ083-085-099-240800-
SOUTHEAST TENNESSEE

CITY           SKY/WX    TMP DP  RH WIND       PRES   REMARKS
CHATTANOOGA    CLEAR     60  52  74 CALM      30.28S
$$

SKY/WX REPORTED AS FAIR MEANS FEW OR NO CLOUDS BELOW
12 THOUSAND FEET.




USA.gov is the U.S. government's official web portal to all federal, state and local government web resources and services.